Regional Weather Roundup
Issued by NWS

Home | Current Version | Previous Version | Text Only | Print | Product List | Glossary Off
Versions: 1 2 3 4 5 6 7 8 9 10 11 12 13 14 15 16 17 18 19 20 21 22 23 24 25 26 27 28 29 30 31 32 33 34 35 36 37 38 39 40 41 42 43 44 45 46 47 48 49 50

000
ASUS43 KLOT 240403
RWRIL

ILLINOIS REGIONAL WEATHER ROUNDUP
NATIONAL WEATHER SERVICE CHICAGO/ROMEOVILLE IL
1000 PM CST THU FEB 23 2017

NOTE: "FAIR" INDICATES FEW OR NO CLOUDS BELOW 12,000 FEET WITH NO
SIGNIFICANT WEATHER AND/OR OBSTRUCTIONS TO VISIBILITY.

* THESE STATIONS ARE NOT UNDER NWS QUALITY CONTROL. THEY ALSO MAY NOT
  REPORT WEATHER SUCH AS PRECIPITATION OR FOG.

ILZ001-002-007-009-015-016-024-240500-
NORTHWEST ILLINOIS

CITY           SKY/WX    TMP DP  RH WIND       PRES   REMARKS
MOLINE         CLOUDY    42  36  79 NE20G28   29.61F
STERLING*      CLOUDY    37  35  92 NE14      29.67F WCI  28
SAVANNA*       CLOUDY    37  34  91 NE16G22   29.68F WCI  27
$$

ILZ003-004-008-010-011-017-018-240500-
NORTH CENTRAL ILLINOIS

CITY           SKY/WX    TMP DP  RH WIND       PRES   REMARKS
ROCKFORD       CLOUDY    37  34  89 NE15      29.73S WCI  28
FREEPORT*      LGT RAIN  34  33  94 NE16G23   29.74R WCI  24
ROCHELLE*      CLOUDY    37  35  95 E17G26    29.69F WCI  27
DE KALB*       CLOUDY    37  35  95 NE15G23   29.70F WCI  27
PERU*          CLOUDY    38  36  91 E20       29.65F WCI  28
$$

ILZ005-006-012>014-019>023-240500-
NORTHEAST ILLINOIS

CITY           SKY/WX    TMP DP  RH WIND       PRES   REMARKS
CHICAGO-OHARE  CLOUDY    39  36  89 NE16      29.72F WCI  30
CHICAGO-MIDWAY LGT RAIN  40  37  89 N12       29.73S
AURORA         CLOUDY    39  36  89 NE16      29.69F WCI  30
LANSING*       CLOUDY    39  39 100 NE9       29.72F WCI  32
JOLIET*        CLOUDY    41  39  94 E12G17    29.68F
WAUKEGAN       LGT RAIN  37  35  92 NE12G24   29.73F WCI  29
DUPAGE AIRPORT LGT RAIN  38  34  85 NE15      29.69F WCI  29
KANKAKEE*      CLOUDY    40  38  94 NE7       29.68F
WHEELING       CLOUDY    37  35  92 NE12G20   29.74F WCI  29
MORRIS*        CLOUDY    40  38  93 E10       29.67F
ROMEOVILLE*    CLOUDY    39  39 100 E14       29.68F FOG     WCI  31
NORTHERLY ISL    N/A     38  37  97 N12         N/A  WCI  30
$$

LMZ740>746-240500-
SOUTHERN LAKE MICHIGAN

STATION/POSITION SKY/WX   TEMP    WIND        PRES    VSBY  WAVE
                          AIR SEA DIR/SP/G                  HT/PER
                          (F)     (DEG/KT/KT) (MB)    (MI)  (FT/S)
HARRISON CRIB              38      10/ 13/ 13   N/A
BURNHAM HARBOR             38     360/  8/ 13   N/A
CALUMET HARBOR             37     350/  9/ 11 1006.4F
BURNS HARBOR               37      70/ 10/ 11 1006.8F
MICHIGAN CITY              36      20/  8/  9   N/A
$$

ILZ025>027-034>036-040-047-049-050-058-095>099-240500-
WEST-CENTRAL ILLINOIS

CITY           SKY/WX    TMP DP  RH WIND       PRES   REMARKS
QUINCY         CLOUDY    55  53  93 E8        29.48F
GALESBURG*     CLOUDY    44  42  93 E13       29.57F
MACOMB*        CLOUDY    49  47  93 E16       29.55F
JACKSONVILLE*  CLOUDY    59  53  80 E12       29.51F
PITTSFIELD*    CLOUDY    61  56  83 SE14      29.47F
$$

ILZ028>032-037-038-041>044-048-051>054-059>061-240500-
CENTRAL ILLINOIS

CITY           SKY/WX    TMP DP  RH WIND       PRES   REMARKS
PONTIAC        DRIZZLE   41  40  98 NE17G23   29.64F
BLOOMINGTON    LGT RAIN  45  43  93 NE17      29.61F
DECATUR        CLOUDY    57  52  83 E10       29.58F
PEORIA         CLOUDY    44  42  93 E21       29.60F
LACON*         CLOUDY    40  39  97 E12       29.62F
LINCOLN*       CLOUDY    52  49  90 NE5       29.62R
SPRINGFIELD    CLOUDY    61  53  75 E7        29.57R
TAYLORVILLE    CLOUDY    60  53  77 SE14      29.55F
$$

ILZ033-039-045-046-055>057-062-063-240500-
EAST-CENTRAL ILLINOIS

CITY           SKY/WX    TMP DP  RH WIND       PRES   REMARKS
CHAMPAIGN      MOCLDY    51  47  86 NE12      29.61F
RANTOUL*       CLOUDY    51  47  87 NE12      29.63F
MATTOON        PTCLDY    59  54  83 SE7       29.61F
PARIS*         CLOUDY    57  55  91 SE8       29.64F
$$

ILZ079-100>102-240500-
SOUTHWEST ILLINOIS

CITY           SKY/WX    TMP DP  RH WIND       PRES   REMARKS
ALTON          CLEAR     57  52  82 SE10      29.54F
BELLEVILLE     CLOUDY    60  57  88 E8        29.53F
CAHOKIA*       MOCLDY    61  53  75 SE6       29.53F
SPARTA*        CLOUDY    66  55  66 S15G23    29.57S
$$

ILZ064>066-069>071-074>076-080>082-084>086-088>090-092>094-240500-
SOUTH-CENTRAL ILLINOIS

CITY           SKY/WX    TMP DP  RH WIND       PRES   REMARKS
CARBONDALE     PTCLDY    64  56  75 S14       29.57F
CAIRO*         CLEAR     64  57  77 S13G18    29.63R
EFFINGHAM*     CLOUDY    61  55  82 SE8       29.63S
MARION         PTCLDY    66  59  77 S15       29.60F
MT. VERNON     CLOUDY    63  55  75 S9        29.60S
CENTRALIA*     CLOUDY    65  56  74 SE10      29.59R
SALEM*         PTCLDY    65  54  67 SE8       29.60S
METROPOLIS*    PTCLDY    65  56  72 S7G18     29.65S
$$

ILZ067-068-072-073-078-083-087-091-240500-
SOUTHEAST ILLINOIS

CITY           SKY/WX    TMP DP  RH WIND       PRES   REMARKS
LAWRENCEVILLE  CLOUDY    62  55  77 SE10      29.65S
FLORA*         CLOUDY    64  55  73 SE13      29.61F
FAIRFIELD*     CLOUDY    64  55  72 SE10      29.60F
HARRISBURG*    CLOUDY    65  56  74 S15       29.62F
ROBINSON*      CLOUDY    60  54  80 S5        29.65F
CARMI*         CLOUDY    62  55  80 SE10      29.62F
$$

ABBREVIATIONS USED IN REMARKS
   TC - TEMPERATURE IN CELSIUS
  WCI - WIND CHILL INDEX
   HX - HEAT INDEX
  VSB - VISIBILITY
$$




USA.gov is the U.S. government's official web portal to all federal, state and local government web resources and services.